GPS BIIF-5 (PRN 30)

Last updated on Wed Sep 17 2025 00:03:17 GMT+0000 (Coordinated Universal Time)

1 39533U 14008A 25258.96350097 -.00000037 00000+0 00000+0 0 9996 2 39533 53.6195 160.5049 0078389 226.2867 133.1013 2.00569189 84180
UTC large
Height (km)
Speed (km/s)
/
Latitude / Longitude
Inclination (degrees)
Orbital Period (minutes)
Azimuth
Elevation
Range (km)
Doppler Factor

Next 0 passes for location: London (51.5072 / 0.1276)

Sorry there are no passes over London.